SCP
0 0 0 0 0 0 0 0 0 0 0 0 0 0 0 0 0 0 0 0 0 0 0 0 0 0 0 0 0 0 0 0 0 0 0 0 0 0 0 0 0 0 0
0 0 0 0 0 0 0 0 0 0 0 0 0 0 0 0 0 0 0 0 0 0 0 0 0 0 0 0 0 0 0 0 0 0 0 0 0 0 0 0 0 0 0
0 0 0 0 0 0 0 0 0 0 0 0 0 0 0 0 0 0 0 0 0 0 0 0 0 0 0 0 0 0 0 0 0 0 0 0 0 0 0 0 0 0 0
0 0 0 0 0 0 0 0 0 0 0 0 0 0 0 0 0 0 0 0 0 0 0 0 0 0 0 0 0 0 0 0 0 0 0 0 0 0 0 0 0 0 0
0 0 0 0 0 0 0 0 0 1 1 0 0 0 0 0 0 0 0 0 0 0 0 0 0 0 0 0 0 0 0 0 0 0 0 0 0 0 0 0 0 0 0
0 0 0 0 0 0 0 0 0 1 1 1 0 0 0 0 0 0 0 0 0 0 0 0 0 0 0 0 0 0 0 0 0 0 0 0 0 0 0 0 0 0 0
0 0 0 0 0 0 0 0 1 1 1 1 0 0 0 0 0 0 0 0 0 0 0 0 0 0 0 0 0 0 0 0 0 0 0 0 0 0 0 0 0 0 0
0 0 0 0 0 0 0 0 1 1 1 1 1 0 0 0 0 0 0 0 0 0 0 0 0 0 0 0 0 0 0 0 0 0 0 0 0 0 0 0 0 0 0
0 0 0 0 0 0 0 1 1 1 1 1 1 1 0 0 0 0 0 0 0 0 0 0 0 0 0 0 0 0 0 0 0 0 0 0 0 0 0 0 0 0 0
0 0 0 0 0 1 1 1 1 1 1 1 1 1 1 1 0 0 0 0 0 0 0 0 0 0 0 0 0 0 0 0 0 0 0 0 0 0 0 0 0 0 0
0 0 0 0 1 1 1 1 1 1 1 1 1 1 1 1 1 0 0 0 0 0 0 0 0 0 0 0 0 0 0 0 0 0 0 0 0 0 0 0 0 0 0
0 0 1 1 1 1 1 1 1 1 1 1 1 1 1 1 0 0 0 0 0 0 0 0 0 0 0 0 0 -0 -0 -0 -0 0 0 0 0 0 0 0 0 0 0
1 1 1 1 1 1 1 1 1 1 1 1 1 1 1 0 0 0 0 0 0 0 0 0 0 0 0 0 -0 -0 -0 -0 0 0 0 0 0 0 0 0 0 0 0
1 1 1 1 1 1 1 1 1 1 1 1 1 1 1 0 0 0 0 0 0 0 0 0 0 0 0 0 0 0 0 0 0 0 0 0 0 0 0 0 0 0 0
1 1 1 1 1 1 1 1 1 1 1 1 1 1 1 1 0 0 0 0 0 0 0 0 0 0 0 0 0 0 0 0 0 0 0 0 0 0 0 0 0 0 0
1 1 1 1 1 1 1 1 1 1 1 1 1 1 1 1 0 0 0 0 0 0 0 0 0 0 0 0 0 0 0 0 0 0 0 0 0 0 0 0 0 0 0
1 1 1 1 1 1 1 1 1 1 1 1 1 1 1 1 0 0 0 0 0 0 0 0 0 0 0 0 0 0 0 0 0 0 0 0 0 0 0 0 0 0 0
1 1 1 1 1 1 1 1 1 1 1 1 1 1 1 1 1 0 0 0 0 0 0 0 0 0 0 0 0 0 0 0 0 0 0 0 0 0 0 0 0 0 0
1 1 1 1 1 1 1 1 1 1 1 1 1 1 1 1 1 1 1 1 1 1 0 0 0 0 0 0 0 0 0 0 0 0 0 0 0 0 0 0 0 0 0
1 1 1 1 1 1 1 1 1 1 1 1 1 1 1 1 1 1 1 1 1 1 1 1 1 1 0 0 0 0 0 0 0 0 0 0 0 0 0 0 0 0 0
1 1 1 2 1 1 1 1 1 1 1 1 1 1 1 1 1 1 1 1 1 1 1 1 1 1 0 0 0 0 0 0 0 0 0 0 0 0 0 0 0 0 0
1 2 2 2 2 1 1 1 1 1 1 1 1 1 1 1 1 1 1 1 1 1 1 1 0 0 0 0 0 0 0 0 0 0 0 0 0 0 0 0 0 0 0
2 2 2 2 2 2 1 1 1 1 1 1 1 1 1 1 1 1 1 1 1 1 0 0 0 0 0 0 0 0 0 0 0 0 0 0 0 0 0 0 0 0 0
2 2 2 2 2 2 1 1 1 1 1 1 1 1 1 1 1 1 1 1 1 1 0 0 0 0 0 0 0 0 0 0 0 0 0 0 0 0 0 0 0 0 0
2 2 2 2 2 2 1 1 1 1 1 1 1 1 1 1 1 1 1 1 1 0 0 0 0 0 0 0 0 0 0 0 0 0 0 0 0 0 0 0 0 0 0
2 2 2 2 2 2 1 1 1 1 1 1 1 1 1 1 1 1 1 1 0 0 0 0 0 0 0 0 0 0 0 0 0 0 0 0 0 0 0 0 0 0 0
Wind_Speed
9 9 9 8 8 8 7 7 6 5 4 3 3 2 2 2 2 2 1 2 2 2 2 3 1 3 2 2 2 2 3 2 2 2 1 1 1 1 1 1 0 1 1
10 10 10 9 9 9 8 8 8 6 6 4 3 2 2 2 2 2 1 2 2 2 3 3 3 2 2 2 2 3 3 2 2 2 2 2 2 1 1 1 1 1 1
12 12 11 10 10 10 9 7 7 7 6 5 4 3 3 3 2 2 2 2 2 2 3 3 4 3 3 2 3 4 4 3 3 2 3 2 1 1 2 1 1 1 0
12 12 12 11 11 10 9 8 7 7 6 6 5 5 3 3 2 2 2 2 2 2 2 3 3 4 3 2 4 4 4 4 3 3 3 3 2 2 1 2 2 1 1
12 12 12 11 10 10 9 8 8 7 7 6 6 5 5 4 2 2 2 3 2 2 2 2 3 3 3 3 3 3 4 3 3 3 2 2 2 3 2 1 1 1 0
12 12 11 10 10 10 9 8 8 8 7 7 6 6 5 4 3 3 3 3 2 2 2 2 2 3 2 3 3 3 3 3 3 3 2 2 2 3 2 3 2 1 1
12 12 12 11 11 11 10 9 9 8 7 7 6 6 6 5 5 4 3 3 2 1 1 2 2 2 2 3 2 2 2 2 3 3 2 2 3 2 2 2 2 1 1
11 11 12 11 11 11 10 10 8 7 7 6 6 5 5 4 3 3 3 2 2 1 0 1 1 2 2 2 1 2 2 1 2 2 2 2 2 2 2 2 2 2 1
9 10 11 11 11 10 10 9 9 8 7 6 6 5 5 3 2 2 2 1 1 1 0 1 1 1 1 1 2 1 2 1 1 1 1 1 1 1 2 2 3 3 2
9 9 10 10 9 9 9 8 8 7 7 6 5 4 4 4 3 2 1 0 0 0 0 0 1 0 0 1 1 1 1 1 1 1 2 2 1 1 1 2 2 3 3
8 9 9 10 9 9 9 9 8 8 7 6 5 5 5 4 3 2 1 1 1 1 1 0 1 1 1 1 1 1 1 1 1 1 1 1 2 1 0 0 0 1 1
7 8 9 10 10 10 9 9 8 8 7 7 6 5 5 5 4 3 2 2 2 1 1 1 1 1 1 1 1 1 2 1 1 1 1 1 0 1 1 1 1 1 1
8 8 8 9 9 9 9 9 8 8 7 7 7 6 5 5 4 4 3 2 2 2 2 1 1 1 1 1 1 1 1 2 2 2 2 1 1 1 1 1 1 1 2
8 8 8 8 8 8 8 8 8 8 8 7 7 7 6 5 5 4 4 3 3 2 2 2 1 1 1 1 1 1 1 2 2 2 2 2 1 1 1 1 1 1 2
8 8 8 8 8 8 8 8 8 8 8 8 7 7 6 6 5 5 4 4 3 3 2 2 2 2 2 2 1 1 1 2 2 2 2 3 4 5 3 2 1 1 1
8 8 8 8 8 8 8 8 9 9 9 8 8 7 7 7 6 6 5 4 4 3 3 2 2 2 2 4 4 2 2 2 2 2 3 4 4 5 5 5 5 3 1
8 8 9 8 8 8 8 9 9 9 9 9 8 8 7 7 6 6 6 5 4 4 3 3 2 2 3 4 3 3 1 2 3 3 2 2 4 3 4 5 5 4 4
8 8 8 8 8 8 8 8 9 10 9 9 8 8 8 7 6 6 6 5 4 3 3 3 2 3 3 3 2 0 2 3 3 2 2 2 3 3 3 3 4 3 3
7 7 7 8 8 8 9 9 9 10 10 9 8 8 8 8 7 6 6 5 4 4 3 3 3 3 3 2 1 1 3 3 3 3 2 2 3 4 1 3 4 4 4
6 7 7 7 8 8 9 10 10 10 10 9 9 8 8 8 7 7 6 5 4 4 4 3 3 3 3 3 1 3 2 3 3 3 3 5 4 3 1 2 3 3 3
7 7 7 6 7 8 9 9 9 9 8 9 9 8 8 8 7 7 6 5 5 4 4 4 3 3 3 4 2 2 0 2 2 2 3 4 5 3 1 1 2 1 1
7 7 6 6 6 7 9 9 9 8 8 8 8 8 8 7 7 7 6 6 6 6 5 4 4 4 4 3 3 1 1 2 1 1 2 5 5 3 1 1 3 0 3
7 6 7 7 6 6 7 8 7 8 8 8 8 8 8 7 7 8 8 7 6 5 5 5 5 4 4 5 5 4 2 0 0 2 5 5 5 4 3 2 2 3 2
6 6 7 7 6 6 6 6 7 8 8 8 8 8 8 8 7 6 6 6 6 5 5 5 4 4 4 4 4 4 4 4 3 3 5 5 4 2 2 3 3 2 0
6 6 6 6 6 6 6 6 7 7 8 8 7 7 7 7 7 6 3 4 3 2 3 4 4 3 4 3 2 2 3 3 2 3 3 3 3 3 2 2 2 2 2
6 6 6 6 6 6 6 7 7 7 8 8 8 7 7 6 6 6 5 2 1 3 2 1 2 2 3 6 5 3 2 2 3 3 3 3 3 3 2 2 2 2 2
Wind_Direction
183 179 182 183 181 182 186 189 193 187 201 209 219 217 213 220 230 226 211 243 258 245 257 277 248 265 258 262 248 248 224 220 206 218 212 190 196 171 193 215 201 134 119
186 184 186 187 189 188 192 194 196 195 205 205 221 237 266 254 244 266 222 248 255 256 242 264 267 256 258 252 253 249 250 227 211 236 240 214 185 150 108 125 122 72 117
191 188 190 192 192 193 195 196 197 196 205 209 211 211 215 242 232 236 227 246 258 262 293 280 278 277 264 245 241 239 240 243 227 231 258 255 198 149 125 87 84 88 64
196 194 192 193 194 194 193 194 194 198 201 207 218 221 232 246 250 252 247 244 246 256 262 274 276 276 276 261 250 236 247 248 246 227 239 263 282 247 173 148 127 112 89
197 196 194 192 192 193 192 188 190 196 198 205 212 222 233 236 229 233 234 253 243 254 261 261 274 274 279 282 281 269 260 254 257 256 249 240 229 235 236 206 171 148 137
194 194 191 187 190 189 189 185 186 193 196 200 206 217 228 239 248 244 239 238 230 243 251 253 262 266 278 276 268 271 258 271 271 267 254 245 248 237 227 215 200 187 162
190 189 189 186 187 187 185 184 185 189 192 196 204 210 221 227 233 244 237 253 255 247 252 262 260 268 265 273 275 263 280 266 261 261 259 258 261 262 249 219 212 217 209
183 186 187 185 186 184 183 183 181 185 188 192 199 206 215 228 229 230 254 244 264 270 327 275 260 265 269 278 289 283 280 280 270 279 285 277 279 266 241 232 213 219 216
176 180 181 182 181 178 178 179 176 178 181 186 189 193 201 215 226 210 234 250 241 222 161 277 269 258 264 285 284 306 312 311 298 294 275 276 279 259 247 223 219 224 228
169 173 175 177 176 173 170 169 167 166 170 174 181 170 174 175 184 193 164 163 167 84 129 302 309 320 3 329 307 315 326 332 333 331 342 317 302 285 256 241 239 238 232
165 166 168 168 167 166 163 163 164 164 164 166 165 165 160 155 152 146 144 146 130 114 88 41 45 42 27 6 335 334 336 344 351 354 8 348 327 319 329 230 242 242 189
159 158 158 160 162 163 164 163 164 164 162 159 157 156 152 148 146 140 133 122 115 117 116 99 87 81 60 13 354 346 12 22 16 11 23 18 54 89 73 87 94 96 133
154 153 153 157 162 164 164 163 165 162 160 157 154 151 151 149 148 144 137 134 132 127 115 102 86 68 61 45 32 28 35 44 43 35 45 50 61 77 83 93 105 134 137
157 155 156 158 160 163 164 163 163 161 159 158 156 153 154 152 148 144 142 141 140 135 125 114 98 79 65 58 54 57 62 65 63 53 52 50 58 77 97 111 125 125 134
161 161 161 158 160 160 163 166 164 163 162 161 158 154 151 147 146 145 143 141 142 136 127 116 104 93 83 50 45 92 95 88 82 73 71 64 55 47 42 34 67 135 160
165 164 163 161 162 162 162 164 165 163 163 164 160 154 154 150 151 152 151 148 144 134 126 116 108 89 62 43 26 3 85 88 88 84 83 96 95 89 80 62 51 40 91
164 166 168 166 164 164 165 165 164 162 164 164 160 160 158 155 157 157 153 149 147 143 136 128 120 104 76 56 42 8 74 89 80 79 80 79 90 109 103 102 107 79 54
164 165 168 166 165 163 163 164 160 163 165 165 163 162 162 158 159 159 154 153 154 153 147 140 132 122 97 85 90 353 119 96 91 89 88 91 101 90 103 116 109 103 87
162 162 165 164 162 164 162 162 162 165 167 168 167 167 168 162 165 164 159 158 160 157 155 142 133 121 106 82 83 251 137 116 103 93 80 87 94 65 51 120 114 108 109
153 155 157 158 160 163 164 166 167 169 172 171 169 167 169 168 168 165 162 160 163 162 157 138 133 127 116 102 100 276 157 129 126 119 106 80 72 77 11 131 124 120 111
155 152 151 152 157 163 170 174 173 175 173 168 166 168 170 170 168 164 164 168 171 163 153 144 144 137 121 132 128 310 247 137 140 126 118 97 90 88 22 330 103 103 164
156 152 149 147 151 165 172 175 176 172 168 168 169 171 171 171 165 166 169 175 176 169 164 163 168 155 146 139 145 149 3 338 123 105 99 102 113 109 92 60 82 109 249
159 157 152 150 154 169 176 174 168 165 166 169 172 173 173 170 170 174 174 181 189 190 179 179 180 166 155 147 153 159 149 331 310 68 71 100 139 153 148 125 150 214 223
165 163 161 159 162 170 172 168 164 167 170 174 175 173 175 174 173 181 185 192 190 192 189 188 186 173 167 165 163 172 170 173 179 152 125 138 156 194 123 151 183 221 290
168 168 169 166 164 167 168 163 161 168 174 173 176 179 181 176 175 182 185 201 184 195 210 198 192 186 182 149 150 209 190 193 162 165 173 175 172 184 180 181 184 202 188
167 171 171 166 163 165 168 168 167 173 179 180 181 184 184 178 181 177 171 92 123 131 144 336 296 171 124 139 158 176 160 136 160 212 200 196 202 201 196 199 194 198 206